SV1AAW Weather Reports


time (UTC)temp
C
wind
direction
speed
KPH
gust
KPH
rain 1hr
cm
rain 24hr
cm
rain mn
cm
humidity
%
barometer
mb
20260507222041 18 0.0 0.0 0.00 0.00 0.00 55 1019.8
20260507221019 18 0.0 0.0 0.00 0.00 0.00 56 1019.9
20260507220038 18 0.0 0.0 0.00 0.00 0.00 56 1019.9
20260507215018 18 0.0 0.0 0.00 0.00 0.00 56 1019.9
20260507214038 18 0.0 0.0 0.00 0.00 0.00 54 1020.0
20260507213020 18 0.0 0.0 0.00 0.00 0.00 52 1020.0
20260507212018 19 0.0 0.0 0.00 0.00 0.00 51 1020.0
20260507211036 20 346 0.0 1.6 0.00 0.00 0.00 50 1019.8
20260507210030 19 355 1.6 3.2 0.00 0.00 0.00 51 1019.9
20260507205103 20 326 1.6 3.2 0.00 0.00 0.00 50 1019.9
20260507204022 19 16 1.6 6.4 0.00 0.00 0.00 51 1019.9
20260507203020 20 347 1.6 1.6 0.00 0.00 0.00 51 1019.8
20260507202019 20 1 1.6 3.2 0.00 0.00 0.00 52 1019.7
20260507201018 20 360 1.6 3.2 0.00 0.00 0.00 51 1019.9
20260507200024 20 12 1.6 3.2 0.00 0.00 0.00 48 1019.9
20260507195021 20 353 1.6 3.2 0.00 0.00 0.00 45 1019.9
20260507194026 21 350 1.6 4.8 0.00 0.00 0.00 42 1020.1
20260507193026 21 266 1.6 3.2 0.00 0.00 0.00 41 1020.0
20260507192024 21 256 3.2 6.4 0.00 0.00 0.00 40 1019.8
20260507191020 21 269 3.2 4.8 0.00 0.00 0.00 39 1019.8
20260507190024 22 297 3.2 6.4 0.00 0.00 0.00 37 1019.7
20260507185022 21 251 3.2 11.3 0.00 0.00 0.00 38 1019.5
20260507184045 21 12 4.8 11.3 0.00 0.00 0.00 44 1019.6
20260507183040 22 14 3.2 11.3 0.00 0.00 0.00 39 1019.5
20260507182018 21 159 1.6 3.2 0.00 0.00 0.00 40 1019.4
20260507181024 20 47 1.6 4.8 0.00 0.00 0.00 55 1019.2
20260507180018 21 17 3.2 4.8 0.00 0.00 0.00 54 1019.0
20260507175024 21 19 0.0 1.6 0.00 0.00 0.00 44 1018.8
20260507174019 22 13 1.6 3.2 0.00 0.00 0.00 41 1018.8
20260507173016 22 329 0.0 1.6 0.00 0.00 0.00 37 1018.7
20260507172018 22 328 0.0 1.6 0.00 0.00 0.00 33 1018.8
20260507171026 23 316 1.6 3.2 0.00 0.00 0.00 32 1018.8
20260507170024 23 267 1.6 3.2 0.00 0.00 0.00 30 1018.8
20260507165041 23 274 1.6 4.8 0.00 0.00 0.00 30 1018.8
20260507164018 23 253 4.8 11.3 0.00 0.00 0.00 29 1018.9
20260507163038 23 241 4.8 6.4 0.00 0.00 0.00 29 1018.9
20260507162023 23 248 3.2 9.7 0.00 0.00 0.00 28 1018.8
20260507161017 23 244 4.8 9.7 0.00 0.00 0.00 29 1018.7
20260507160018 24 235 4.8 12.9 0.00 0.00 0.00 29 1018.8
20260507155018 24 232 4.8 9.7 0.00 0.00 0.00 30 1018.8
20260507154018 24 234 4.8 11.3 0.00 0.00 0.00 30 1018.7
20260507153016 24 228 4.8 11.3 0.00 0.00 0.00 30 1018.7
20260507152024 25 209 4.8 9.7 0.00 0.00 0.00 29 1018.8
20260507151022 25 222 6.4 14.5 0.00 0.00 0.00 29 1018.9
20260507150020 25 212 6.4 16.1 0.00 0.00 0.00 29 1018.9
20260507145023 25 227 8.0 17.7 0.00 0.00 0.00 30 1019.0
20260507144020 25 217 8.0 17.7 0.00 0.00 0.00 31 1019.0
20260507143019 25 205 8.0 14.5 0.00 0.00 0.00 31 1019.1
20260507142021 24 220 9.7 16.1 0.00 0.00 0.00 32 1019.1
20260507141021 24 189 8.0 16.1 0.00 0.00 0.00 34 1019.1
20260507140025 24 218 8.0 14.5 0.00 0.00 0.00 35 1019.1
20260507135020 24 236 8.0 14.5 0.00 0.00 0.00 34 1019.2
20260507134017 24 232 9.7 20.9 0.00 0.00 0.00 35 1019.3
20260507133020 25 221 9.7 20.9 0.00 0.00 0.00 36 1019.4
20260507132037 25 214 8.0 16.1 0.00 0.00 0.00 37 1019.2
20260507131024 25 208 8.0 16.1 0.00 0.00 0.00 35 1019.2
20260507130021 25 236 8.0 16.1 0.00 0.00 0.00 33 1019.2
20260507125017 26 227 8.0 16.1 0.00 0.00 0.00 33 1019.3
20260507124026 26 189 6.4 14.5 0.00 0.00 0.00 31 1019.3
20260507123019 26 185 6.4 12.9 0.00 0.00 0.00 29 1019.3
20260507122017 26 164 6.4 14.5 0.00 0.00 0.00 30 1019.3
20260507121025 25 161 6.4 12.9 0.00 0.00 0.00 34 1019.3
20260507120020 25 157 3.2 11.3 0.00 0.00 0.00 38 1019.4
20260507115045 25 116 4.8 9.7 0.00 0.00 0.00 34 1019.4
20260507114042 25 140 4.8 9.7 0.00 0.00 0.00 35 1019.4
20260507113024 25 171 6.4 12.9 0.00 0.00 0.00 31 1019.4
20260507112019 25 159 8.0 16.1 0.00 0.00 0.00 31 1019.4
20260507111018 25 164 8.0 14.5 0.00 0.00 0.00 32 1019.4
20260507110017 25 170 8.0 14.5 0.00 0.00 0.00 33 1019.5
20260507105023 24 163 6.4 14.5 0.00 0.00 0.00 36 1019.7
20260507104021 23 139 4.8 9.7 0.00 0.00 0.00 42 1019.7
20260507103017 22 131 4.8 14.5 0.00 0.00 0.00 43 1019.6
20260507102022 22 148 8.0 16.1 0.00 0.00 0.00 44 1019.6
20260507101018 22 142 9.7 17.7 0.00 0.00 0.00 45 1019.7
20260507100017 22 140 8.0 17.7 0.00 0.00 0.00 44 1019.8
20260507095023 21 131 8.0 14.5 0.00 0.00 0.00 44 1019.8
20260507094026 21 148 9.7 20.9 0.00 0.00 0.00 44 1019.8
20260507093021 21 142 8.0 16.1 0.00 0.00 0.00 45 1019.9
20260507092019 21 144 8.0 16.1 0.00 0.00 0.00 45 1019.8
20260507091017 21 147 9.7 24.1 0.00 0.00 0.00 46 1019.8
20260507090018 21 159 8.0 17.7 0.00 0.00 0.00 46 1020.0
20260507085124 20 152 8.0 20.9 0.00 0.00 0.00 47 1020.1
20260507084019 20 153 9.7 17.7 0.00 0.00 0.00 49 1020.1
20260507083024 20 147 9.7 17.7 0.00 0.00 0.00 50 1020.1
20260507082044 20 152 11.3 24.1 0.00 0.00 0.00 48 1020.1
20260507081022 20 148 9.7 17.7 0.00 0.00 0.00 49 1020.0
20260507080021 20 146 9.7 17.7 0.00 0.00 0.00 49 1020.0
20260507075018 20 144 11.3 20.9 0.00 0.00 0.00 51 1020.0
20260507074016 20 145 8.0 14.5 0.00 0.00 0.00 50 1020.1
20260507073021 20 144 8.0 16.1 0.00 0.00 0.00 50 1020.1
20260507072018 20 139 6.4 17.7 0.00 0.00 0.00 47 1020.1
20260507071018 20 132 4.8 14.5 0.00 0.00 0.00 50 1020.2
20260507070016 20 137 4.8 16.1 0.00 0.00 0.00 51 1020.1
20260507065036 20 150 6.4 16.1 0.00 0.00 0.00 51 1020.1
20260507064024 20 162 3.2 9.7 0.00 0.00 0.00 50 1020.1
20260507063023 19 165 1.6 3.2 0.00 0.00 0.00 55 1020.2
20260507062019 18 136 1.6 6.4 0.00 0.00 0.00 61 1020.3
20260507061025 17 147 1.6 3.2 0.00 0.00 0.00 64 1020.2
20260507060020 17 276 1.6 3.2 0.00 0.00 0.00 70 1020.2
20260507055016 17 20 1.6 4.8 0.00 0.00 0.00 71 1020.2
20260507054022 17 21 3.2 3.2 0.00 0.00 0.00 69 1020.0
20260507053058 17 0.0 0.0 0.00 0.00 0.00 70 1020.0
20260507052023 16 0.0 0.0 0.00 0.00 0.00 71 1019.9
20260507051021 16 0.0 0.0 0.00 0.00 0.00 70 1019.9
20260507050020 17 0.0 0.0 0.00 0.00 0.00 70 1019.7
20260507045059 16 0.0 0.0 0.00 0.00 0.00 72 1019.7
20260507044020 16 58 1.6 1.6 0.00 0.00 0.00 73 1019.5
20260507043017 15 58 0.0 3.2 0.00 0.00 0.00 74 1019.5
20260507042017 15 58 0.0 1.6 0.00 0.00 0.00 76 1019.5
20260507041025 14 63 1.6 1.6 0.00 0.00 0.00 77 1019.3
20260507040041 14 109 0.0 3.2 0.00 0.00 0.00 77 1019.1
20260507035019 13 150 0.0 1.6 0.00 0.00 0.00 76 1018.9
20260507034025 13 0.0 0.0 0.00 0.00 0.00 75 1018.8
20260507033026 13 0.0 0.0 0.00 0.00 0.00 74 1018.7
20260507032024 14 0.0 0.0 0.00 0.00 0.00 73 1018.6
20260507031022 14 0.0 0.0 0.00 0.00 0.00 72 1018.4
20260507030101 14 0.0 0.0 0.00 0.00 0.00 72 1018.3
20260507025018 14 0.0 0.0 0.00 0.00 0.00 72 1018.3
20260507024024 14 153 0.0 1.6 0.00 0.00 0.00 72 1018.4
20260507023104 14 151 0.0 1.6 0.00 0.00 0.00 71 1018.2
20260507022023 14 0.0 0.0 0.00 0.00 0.00 71 1018.2
20260507021017 15 136 1.6 1.6 0.00 0.00 0.00 71 1018.2
20260507020025 15 122 0.0 1.6 0.00 0.00 0.00 71 1018.2
20260507015021 15 65 0.0 1.6 0.00 0.00 0.00 71 1017.9
20260507014018 15 61 0.0 1.6 0.00 0.00 0.00 70 1018.0
20260507013025 15 61 1.6 1.6 0.00 0.00 0.00 70 1017.9
20260507012022 15 60 0.0 3.2 0.00 0.00 0.00 69 1017.9
20260507011018 15 60 0.0 1.6 0.00 0.00 0.00 68 1017.9
20260507010018 15 0.0 0.0 0.00 0.00 0.00 68 1017.9
20260507005106 15 60 0.0 1.6 0.00 0.00 0.00 66 1018.1
20260507004026 15 0.0 0.0 0.00 0.00 0.00 66 1018.0
20260507003023 15 60 1.6 1.6 0.00 0.00 0.00 66 1018.2
20260507002019 15 61 1.6 1.6 0.00 0.00 0.00 65 1018.1
20260507001024 15 66 1.6 3.2 0.00 0.00 0.00 64 1018.1
20260507000020 15 93 1.6 3.2 0.00 0.00 0.00 62 1018.1
20260506235101 15 0.0 0.0 0.00 0.00 0.00 61 1018.1
20260506234024 15 149 0.0 3.2 0.00 0.00 0.00 62 1018.1
20260506233021 15 0.0 0.0 0.00 0.00 0.00 61 1018.1
20260506232018 15 149 0.0 1.6 0.00 0.00 0.00 61 1018.2
20260506231016 15 149 0.0 1.6 0.00 0.00 0.00 62 1018.3
20260506230025 15 149 1.6 3.2 0.00 0.00 0.00 64 1018.2
20260506224024 15 153 0.0 1.6 0.00 0.00 0.00 63 1018.5
20260506223025 16 0.0 0.0 0.00 0.00 0.00 61 1018.6